Probability
85 82 76 75 80 77 64 50 41 45 62 80 89 89 84 78 70 57 34 14 6 4 2 1 1 0 0 0 0 0 0 0 0 0 0 0 0 0 0 0 0 0 0
90 86 81 80 84 85 76 64 56 57 68 81 88 87 82 76 69 62 47 26 12 8 5 3 1 0 0 0 0 0 0 0 0 0 0 0 0 0 0 0 0 0 0
94 90 85 83 86 89 85 77 71 69 74 83 90 89 83 75 69 68 60 41 21 13 10 7 3 1 0 0 0 0 0 0 0 0 1 1 0 0 0 0 0 0 0
95 93 89 86 87 88 87 84 81 79 82 88 94 93 85 75 70 69 63 45 25 15 13 12 9 5 3 1 0 1 1 1 2 3 3 3 3 2 1 0 0 0 0
94 95 94 93 92 92 92 92 91 92 93 96 97 94 86 77 70 66 59 43 24 12 10 13 14 12 10 5 3 4 4 3 4 7 9 10 9 7 4 2 1 0 0
87 90 94 95 96 97 97 97 98 98 99 98 97 93 86 77 66 57 48 34 18 7 5 7 11 14 11 8 8 9 8 7 8 12 18 19 16 13 10 6 3 1 0
70 75 83 91 96 97 98 98 98 97 97 96 94 89 82 72 58 42 31 23 13 5 2 2 5 7 6 6 10 13 13 13 15 18 23 24 22 21 19 13 7 3 1
45 51 62 76 88 95 97 98 97 96 93 89 85 79 71 61 47 31 21 17 13 6 1 0 1 2 2 4 10 15 16 17 18 17 21 25 28 31 29 22 16 10 5
21 27 38 54 72 83 89 91 91 88 79 69 61 53 46 39 31 21 16 14 11 5 1 1 1 1 1 2 6 10 11 13 13 12 16 24 33 39 37 31 26 19 12
6 10 19 33 48 59 66 68 67 62 50 37 28 21 17 15 12 9 7 6 4 2 2 2 2 2 1 1 2 3 3 5 6 8 11 17 30 43 45 37 30 24 19
0 2 7 16 25 30 34 34 32 27 19 12 6 3 2 2 2 1 1 1 0 1 1 1 1 1 1 0 0 0 0 1 2 3 4 7 18 35 42 36 29 25 24
0 0 1 4 7 9 10 10 8 5 3 2 0 0 0 0 0 0 0 0 0 0 0 0 0 0 0 0 0 0 0 0 0 0 0 2 8 21 33 33 28 24 21
0 0 0 0 1 1 1 1 1 0 0 0 0 0 0 0 0 0 0 0 0 0 0 0 0 0 0 0 0 0 0 0 0 0 0 1 4 14 25 28 28 24 18
0 0 0 0 0 0 0 0 0 0 0 0 0 0 0 0 0 0 0 0 0 0 0 0 0 0 0 0 0 0 0 0 0 0 0 0 2 8 15 19 25 29 25
0 0 0 0 0 0 0 0 0 0 0 0 0 0 0 0 0 0 0 0 0 0 0 0 0 0 0 0 0 0 0 0 0 0 0 0 0 2 4 8 16 23 26
0 0 0 0 0 0 0 0 0 0 0 0 0 0 0 0 0 0 0 0 0 0 0 0 0 0 0 0 0 0 0 0 0 0 0 0 0 0 0 2 5 8 10
0 0 0 0 0 0 0 0 0 0 0 0 0 0 0 0 0 0 0 0 0 0 0 0 0 0 0 0 0 0 0 0 0 0 0 0 0 0 0 0 0 0 1
0 0 0 0 0 0 0 0 0 0 0 0 0 0 0 0 0 0 0 0 0 0 0 0 0 0 0 0 0 0 0 0 0 0 0 0 0 0 0 0 0 0 0
0 0 0 0 0 0 0 0 0 0 0 0 0 0 0 0 0 0 0 0 0 0 0 0 0 0 0 0 0 0 0 0 0 0 0 0 0 0 0 0 0 0 0
0 0 0 0 0 0 0 0 0 0 0 0 0 0 0 0 0 0 0 0 0 0 0 0 0 0 0 0 0 0 0 0 0 0 0 0 0 0 0 0 0 0 0
0 0 0 0 0 0 0 0 0 0 0 0 0 0 0 0 0 0 0 0 0 0 0 0 0 0 0 0 0 0 0 0 0 0 0 0 0 0 0 0 0 0 0
0 0 0 0 0 0 0 0 0 0 0 0 0 0 0 0 0 0 0 0 0 0 0 0 0 0 0 0 0 0 0 0 0 0 0 0 0 0 0 0 0 0 0
0 0 0 0 0 0 0 0 0 0 0 0 0 0 0 0 0 0 0 0 0 0 0 0 0 0 0 0 0 0 0 0 0 0 0 0 0 0 0 0 0 0 0
0 0 0 0 0 0 0 0 0 0 0 0 0 0 0 0 0 0 0 0 0 0 0 0 0 0 0 0 0 0 0 0 0 0 0 0 0 0 0 0 0 0 0
0 0 0 0 0 0 0 0 0 0 0 0 0 0 0 0 0 0 0 0 0 0 0 0 0 0 0 0 0 0 0 0 0 0 0 0 0 0 0 0 0 0 0
0 0 0 0 0 0 0 0 0 0 0 0 0 0 0 0 0 0 0 0 0 0 0 0 0 0 0 0 0 0 0 0 0 0 0 0 0 0 0 0 0 0 0
Wind_Speed
9 10 11 12 12 12 12 13 13 12 9 7 6 5 5 4 3 4 6 7 8 7 6 6 6 6 6 6 8 6 6 5 4 6 6 5 5 2 3 4 4 4 5
7 9 10 11 12 13 13 13 13 12 10 7 5 3 3 2 2 3 4 6 7 7 7 6 6 7 6 8 8 6 6 6 4 5 6 5 3 5 3 3 3 4 4
5 7 9 11 12 13 13 11 12 11 10 9 6 4 3 3 3 3 2 4 6 6 7 7 7 6 7 7 7 7 8 6 5 4 5 5 4 5 3 3 3 3 4
2 4 7 9 10 10 9 10 9 9 9 9 8 9 7 7 6 4 2 2 3 5 6 7 7 7 6 7 8 7 6 7 6 4 5 6 5 6 5 3 4 4 4
4 2 1 3 4 5 5 5 5 6 6 6 7 8 8 6 5 4 4 3 2 4 6 6 6 7 6 8 8 7 7 6 7 5 5 6 5 7 6 7 5 4 2
7 7 6 5 4 3 3 3 4 4 4 4 4 6 6 6 6 6 5 4 3 3 5 5 6 6 6 6 6 7 8 7 7 6 6 6 6 6 6 7 7 6 2
9 9 8 7 6 6 5 4 5 5 4 3 2 2 4 5 5 5 5 4 3 3 3 4 5 5 5 5 5 6 7 7 7 7 7 7 8 7 7 7 7 7 4
9 10 9 8 7 6 5 5 5 5 4 3 1 0 1 2 2 3 3 3 3 2 3 4 5 5 5 6 5 6 7 7 7 9 9 8 9 8 8 7 7 6 5
8 8 8 8 8 7 6 5 5 5 5 4 3 2 2 2 1 1 2 1 1 1 3 4 5 5 6 6 6 6 7 7 8 9 9 8 8 8 8 7 7 6 5
6 7 7 7 6 6 5 6 5 5 5 4 4 3 3 3 3 2 3 3 3 3 4 4 5 5 6 6 6 7 6 7 8 7 8 8 8 7 7 7 6 7 6
5 5 6 6 6 6 6 5 5 5 4 4 4 3 3 3 3 3 4 3 3 3 4 5 5 6 6 6 6 7 7 8 8 8 8 9 9 7 7 7 7 7 7
4 5 5 5 6 6 6 5 4 4 4 3 3 3 3 3 3 4 3 3 3 3 4 4 5 5 5 5 6 7 7 7 7 8 8 9 8 9 7 7 8 7 7
4 4 5 5 5 5 5 4 4 3 2 2 2 2 2 3 3 4 3 3 3 3 4 4 4 5 5 5 5 6 6 6 6 6 7 8 8 8 6 7 7 6 6
3 3 4 4 4 4 4 3 3 2 1 1 1 1 1 2 3 3 3 3 3 4 4 5 5 5 5 5 5 4 4 4 4 5 5 6 7 7 7 6 6 5 5
2 3 3 3 3 3 3 2 2 2 0 1 1 1 2 2 3 3 3 3 3 4 4 4 5 5 5 7 8 5 4 4 3 4 4 6 8 10 8 6 4 3 3
2 2 2 3 3 3 2 2 2 2 1 1 2 2 1 2 2 2 3 3 3 4 4 5 5 6 7 8 9 8 4 4 4 5 5 5 6 7 8 10 10 9 4
2 2 3 3 3 2 2 1 2 2 2 2 2 2 1 2 2 2 2 2 2 3 3 4 4 5 6 5 7 8 5 6 6 6 5 5 5 5 5 5 5 8 9
3 1 2 2 2 1 0 1 3 3 2 2 2 2 1 2 2 2 2 2 2 2 3 4 4 4 5 3 4 6 4 6 7 7 7 7 7 9 8 4 6 8 9
2 0 2 2 2 1 0 2 3 3 3 2 1 1 0 1 1 1 1 1 2 2 2 2 3 4 5 3 2 6 4 6 7 8 9 9 9 12 12 4 6 7 7
3 1 1 1 1 1 1 2 2 2 1 1 0 1 0 0 1 1 0 1 1 2 3 2 3 3 5 4 2 6 2 5 5 5 7 11 10 11 13 6 6 7 6
3 1 1 1 2 2 0 1 2 1 1 2 2 1 1 1 1 0 0 1 1 2 3 3 3 4 5 5 5 5 4 3 3 4 5 7 9 9 10 8 6 4 5
4 2 1 1 2 2 2 3 2 2 2 2 2 2 2 1 2 2 3 3 3 3 3 4 3 2 3 5 5 6 6 6 3 2 3 5 5 6 7 6 5 5 7
3 2 2 3 3 2 2 4 2 1 2 2 3 2 2 3 3 4 4 4 4 3 3 4 4 3 3 3 4 5 6 6 4 3 5 4 3 3 0 3 4 5 4
4 4 3 3 4 4 4 4 3 1 1 2 2 2 2 3 4 3 4 4 3 3 3 4 4 4 4 4 4 2 2 2 2 3 1 2 2 3 2 2 2 2 3
5 4 4 4 5 5 5 4 3 2 2 2 3 3 4 4 4 4 4 4 3 3 2 3 3 4 4 5 6 5 4 4 4 5 5 4 3 3 2 2 1 2 2
6 5 5 5 6 5 5 4 2 1 1 2 3 2 3 4 4 5 5 4 3 3 2 2 4 2 3 3 3 3 3 3 3 2 3 4 6 6 6 6 4 3 2
Wind_Direction
199 202 208 210 204 203 204 208 214 213 215 216 219 224 233 248 259 261 263 263 263 264 259 268 267 265 265 270 274 275 274 271 281 284 285 272 234 249 268 261 285 300 310
194 202 209 212 213 207 210 213 217 218 216 217 219 220 227 241 267 291 293 284 279 276 266 263 266 264 268 267 270 269 281 288 282 293 298 290 249 193 218 242 255 293 303
212 205 210 216 217 216 214 218 219 218 216 215 211 196 193 201 211 227 242 278 290 289 289 281 273 268 265 266 269 269 266 275 278 269 288 298 316 316 216 213 246 276 301
270 233 219 219 222 221 218 219 219 218 217 215 216 213 214 213 214 211 216 258 300 306 300 292 286 272 263 261 263 264 265 267 268 260 250 264 291 293 299 257 206 216 255
17 356 279 225 215 211 206 202 202 201 201 213 216 217 223 222 212 205 221 240 269 292 300 301 295 281 270 264 263 272 263 258 259 260 258 254 245 245 265 286 292 271 237
44 40 40 60 78 95 123 140 151 151 161 185 206 224 230 224 219 224 232 245 261 275 287 299 296 284 275 267 265 267 260 255 257 259 257 261 261 257 257 270 276 280 274
48 45 45 59 72 77 86 107 120 121 126 143 178 223 236 228 229 238 238 242 252 256 270 282 281 285 284 278 273 264 265 260 259 260 262 264 264 267 260 262 272 281 275
47 44 40 44 58 72 80 89 100 105 106 106 99 360 283 259 250 250 259 250 252 254 260 265 272 280 280 279 277 274 268 267 268 267 266 266 263 261 256 254 263 270 271
46 45 42 42 44 50 58 72 89 94 89 85 82 65 42 9 7 338 296 296 302 284 266 273 281 288 290 291 288 279 280 278 272 272 267 264 268 260 257 250 245 249 258
51 48 47 47 50 52 55 62 70 77 80 82 75 71 58 44 37 25 27 13 2 347 320 310 304 299 296 290 287 284 282 285 280 278 280 277 270 265 258 250 243 241 247
42 45 45 44 49 55 55 56 63 70 71 64 67 67 64 63 58 51 41 28 14 355 337 324 311 304 299 299 293 289 293 288 291 291 287 284 281 271 260 247 239 236 235
26 36 41 42 41 42 47 53 57 59 57 55 53 68 79 75 82 82 65 43 19 349 340 321 314 309 306 301 294 293 298 299 301 304 303 297 292 280 266 254 243 238 233
10 19 30 33 32 32 36 43 57 63 52 50 57 66 95 103 94 87 77 53 24 1 348 341 339 336 329 320 313 307 306 307 313 320 317 317 311 298 283 266 255 245 238
352 4 15 24 24 23 26 30 46 64 93 140 138 130 116 115 109 95 79 56 37 24 13 7 4 358 353 349 342 335 335 335 345 348 348 349 344 332 315 285 269 255 243
338 358 2 10 7 16 22 35 39 43 9 172 148 136 130 130 116 100 86 73 51 41 32 21 21 19 23 17 360 359 12 13 10 17 19 23 22 21 6 351 333 300 265
318 338 347 354 358 0 7 52 69 56 58 84 95 87 101 124 113 104 109 97 71 49 40 35 34 37 39 25 10 351 35 30 28 31 34 32 30 36 43 42 40 31 6
276 316 340 341 341 346 351 55 98 99 90 80 80 81 94 102 94 108 117 102 76 58 47 42 45 54 57 38 24 2 19 47 38 34 35 40 35 18 33 49 65 60 48
218 258 317 333 331 326 68 129 132 126 115 96 80 63 57 73 69 71 66 54 35 40 41 37 48 60 67 53 23 336 46 56 51 44 41 45 41 24 1 38 57 57 44
176 231 327 335 330 335 36 175 164 158 148 134 111 97 117 130 108 72 46 16 12 7 359 36 45 59 77 61 355 322 72 71 65 55 43 34 44 15 349 40 69 72 81
167 198 311 345 359 356 263 211 162 160 139 112 94 60 48 151 170 138 353 320 348 335 332 2 24 48 68 67 13 318 53 77 81 80 77 56 29 12 0 27 60 66 62
164 196 248 43 39 11 317 128 90 44 26 36 43 36 48 45 353 263 346 335 343 342 340 340 358 38 60 83 63 9 0 42 63 63 58 48 23 17 8 1 40 27 342
172 177 163 92 67 61 97 101 83 26 15 35 37 36 48 47 50 58 54 40 22 12 354 342 341 10 45 49 61 58 38 357 21 41 50 53 24 15 14 18 15 323 300
151 158 151 129 111 98 106 105 83 49 47 70 77 65 61 69 65 64 56 48 35 23 8 351 340 347 13 70 75 62 55 32 5 22 40 21 356 312 36 38 336 309 321
148 147 141 136 120 105 100 103 103 96 132 134 132 130 103 89 81 73 66 60 41 33 31 10 354 354 8 12 11 27 55 43 14 353 92 222 267 270 293 281 287 333 3
136 137 135 128 119 117 118 114 114 123 136 139 145 149 142 131 118 104 87 89 88 63 32 11 355 1 19 21 6 3 33 30 21 346 333 320 302 275 261 263 292 307 302
144 142 136 129 126 130 128 128 135 142 118 123 122 127 125 128 136 133 125 87 74 90 66 355 333 13 40 18 1 37 58 52 48 25 3 348 340 332 325 316 304 288 302